When you browse on this site, cookies collect data to enhance your experience and personalize the content and advertising you see.
Visit our Privacy Policy to learn more. By continuing to use the site, you agree to this use of cookies and data.
  • In Deutschland
  • Länderverzeichnis
  • Für 7 Tage
  • Wassertemperatur
  • Wetterkarte
  • Widgets
  • user-avatar
    Anmelden

    Stündliche Wetter Asadabad

    Heute, 15 September, Sonntag

    Zeit Temperatur Niederschläge Wind Luftdruck Luftfeuchtigkeit
    00:00 +25°C° 0.1 mm 1 m/S 657 mmHg 65%
    01:00 +24°C° 0.1 mm 1 m/S 657 mmHg 64%
    02:00 +24°C° 0.1 mm 1 m/S 657 mmHg 63%
    03:00 +24°C° 0.2 mm 1 m/S 657 mmHg 61%
    04:00 +23°C° 0.2 mm 1 m/S 657 mmHg 60%
    05:00 +23°C° 0 mm 1 m/S 657 mmHg 62%
    06:00 +24°C° 0.2 mm 1 m/S 657 mmHg 58%
    07:00 +25°C° 0.2 mm 1 m/S 658 mmHg 55%
    08:00 +26°C° 0.2 mm 1 m/S 658 mmHg 51%
    09:00 +27°C° 0 mm 1 m/S 658 mmHg 50%
    10:00 +28°C° 0 mm 2 m/S 658 mmHg 49%
    11:00 +29°C° 0 mm 2 m/S 658 mmHg 47%
    12:00 +30°C° 0 mm 2 m/S 658 mmHg 45%
    13:00 +30°C° 0 mm 2 m/S 658 mmHg 43%
    14:00 +31°C° 0 mm 2 m/S 657 mmHg 40%
    15:00 +31°C° 0.2 mm 2 m/S 657 mmHg 40%
    16:00 +31°C° 0.2 mm 2 m/S 657 mmHg 41%
    17:00 +31°C° 0.2 mm 2 m/S 656 mmHg 41%
    18:00 +29°C° 0 mm 2 m/S 657 mmHg 48%
    19:00 +28°C° 0 mm 1 m/S 657 mmHg 55%
    20:00 +26°C° 0 mm 1 m/S 657 mmHg 63%
    21:00 +26°C° 0.1 mm 1 m/S 657 mmHg 62%
    22:00 +25°C° 0.1 mm 1 m/S 657 mmHg 62%
    23:00 +25°C° 0.1 mm 1 m/S 657 mmHg 62%

    Morgen, 16 September, Montag

    Zeit Temperatur Niederschläge Wind Luftdruck Luftfeuchtigkeit
    00:00 +25°C° 0 mm 1 m/S 657 mmHg 59%
    01:00 +24°C° 0 mm 1 m/S 656 mmHg 55%
    02:00 +24°C° 0 mm 1 m/S 656 mmHg 52%
    03:00 +23°C° 0.1 mm 2 m/S 656 mmHg 48%
    04:00 +23°C° 0.1 mm 2 m/S 656 mmHg 44%
    05:00 +21°C° 0.1 mm 2 m/S 656 mmHg 40%
    06:00 +24°C° 0 mm 2 m/S 656 mmHg 36%
    07:00 +25°C° 0 mm 2 m/S 657 mmHg 31%
    08:00 +26°C° 0 mm 2 m/S 657 mmHg 26%
    09:00 +27°C° 0 mm 1 m/S 657 mmHg 24%
    10:00 +29°C° 0 mm 1 m/S 657 mmHg 21%
    11:00 +30°C° 0 mm 1 m/S 658 mmHg 19%
    12:00 +31°C° 0 mm 1 m/S 657 mmHg 18%
    13:00 +31°C° 0 mm 2 m/S 657 mmHg 18%
    14:00 +32°C° 0 mm 2 m/S 656 mmHg 17%
    15:00 +32°C° 0 mm 2 m/S 656 mmHg 17%
    16:00 +32°C° 0 mm 2 m/S 656 mmHg 18%
    17:00 +31°C° 0 mm 1 m/S 656 mmHg 18%
    18:00 +29°C° 0 mm 1 m/S 656 mmHg 24%
    19:00 +27°C° 0 mm 1 m/S 655 mmHg 30%
    20:00 +25°C° 0 mm 1 m/S 655 mmHg 36%
    21:00 +25°C° 0 mm 1 m/S 655 mmHg 37%
    22:00 +24°C° 0 mm 1 m/S 655 mmHg 38%
    23:00 +24°C° 0 mm 1 m/S 655 mmHg 40%

    übermorgen, 17 September, Dienstag

    Zeit Temperatur Niederschläge Wind Luftdruck Luftfeuchtigkeit
    00:00 +23°C° 0 mm 1 m/S 655 mmHg 37%
    01:00 +23°C° 0 mm 2 m/S 655 mmHg 34%
    02:00 +23°C° 0 mm 2 m/S 655 mmHg 32%
    03:00 +21°C° 0 mm 2 m/S 655 mmHg 30%
    04:00 +21°C° 0 mm 3 m/S 655 mmHg 28%
    05:00 +20°C° 0 mm 3 m/S 656 mmHg 26%
    06:00 +23°C° 0 mm 2 m/S 656 mmHg 25%
    07:00 +24°C° 0 mm 2 m/S 657 mmHg 23%
    08:00 +25°C° 0 mm 2 m/S 657 mmHg 22%
    09:00 +27°C° 0 mm 2 m/S 658 mmHg 20%
    10:00 +29°C° 0 mm 1 m/S 658 mmHg 17%
    11:00 +30°C° 0 mm 1 m/S 659 mmHg 15%
    12:00 +31°C° 0 mm 1 m/S 658 mmHg 15%
    13:00 +32°C° 0 mm 2 m/S 658 mmHg 15%
    14:00 +32°C° 0 mm 2 m/S 658 mmHg 15%
    15:00 +32°C° 0 mm 2 m/S 658 mmHg 15%
    16:00 +32°C° 0 mm 2 m/S 657 mmHg 16%
    17:00 +32°C° 0 mm 1 m/S 657 mmHg 17%
    18:00 +29°C° 0 mm 1 m/S 657 mmHg 23%
    19:00 +27°C° 0 mm 1 m/S 657 mmHg 29%
    20:00 +23°C° 0 mm 0 m/S 656 mmHg 35%
    21:00 +22°C° 0 mm 0 m/S 656 mmHg 35%
    22:00 +22°C° 0 mm 0 m/S 656 mmHg 35%
    23:00 +23°C° 0 mm 1 m/S 656 mmHg 35%

    18 September, Mittwoch

    Zeit Temperatur Niederschläge Wind Luftdruck Luftfeuchtigkeit
    00:00 +23°C° 0 mm 1 m/S 656 mmHg 32%
    01:00 +23°C° 0 mm 1 m/S 656 mmHg 30%
    02:00 +23°C° 0 mm 1 m/S 656 mmHg 28%
    03:00 +22°C° 0 mm 1 m/S 656 mmHg 27%
    04:00 +22°C° 0 mm 1 m/S 656 mmHg 26%
    05:00 +21°C° 0 mm 1 m/S 656 mmHg 25%
    06:00 +24°C° 0 mm 1 m/S 657 mmHg 23%
    07:00 +26°C° 0 mm 1 m/S 658 mmHg 20%
    08:00 +28°C° 0 mm 1 m/S 659 mmHg 17%
    09:00 +29°C° 0 mm 1 m/S 659 mmHg 16%
    10:00 +30°C° 0 mm 1 m/S 659 mmHg 16%
    11:00 +31°C° 0 mm 2 m/S 659 mmHg 15%
    12:00 +32°C° 0 mm 2 m/S 659 mmHg 15%
    13:00 +34°C° 0 mm 2 m/S 659 mmHg 14%
    14:00 +34°C° 0 mm 2 m/S 658 mmHg 14%
    15:00 +34°C° 0 mm 2 m/S 658 mmHg 14%
    16:00 +34°C° 0 mm 2 m/S 658 mmHg 15%
    17:00 +34°C° 0 mm 2 m/S 658 mmHg 16%
    18:00 +30°C° 0 mm 1 m/S 657 mmHg 22%
    19:00 +28°C° 0 mm 1 m/S 657 mmHg 29%
    20:00 +23°C° 0 mm 0 m/S 657 mmHg 35%
    21:00 +23°C° 0 mm 0 m/S 657 mmHg 35%
    22:00 +24°C° 0 mm 1 m/S 657 mmHg 35%
    23:00 +24°C° 0 mm 1 m/S 657 mmHg 35%

    19 September, Donnerstag

    Zeit Temperatur Niederschläge Wind Luftdruck Luftfeuchtigkeit
    00:00 +24°C° 0 mm 1 m/S 657 mmHg 35%
    01:00 +23°C° 0 mm 1 m/S 656 mmHg 34%
    02:00 +23°C° 0 mm 1 m/S 656 mmHg 34%
    03:00 +22°C° 0 mm 1 m/S 656 mmHg 35%
    04:00 +22°C° 0 mm 1 m/S 657 mmHg 35%
    05:00 +19°C° 0 mm 0 m/S 657 mmHg 36%
    06:00 +23°C° 0 mm 1 m/S 658 mmHg 34%
    07:00 +25°C° 0 mm 1 m/S 659 mmHg 31%
    08:00 +27°C° 0 mm 1 m/S 659 mmHg 29%
    09:00 +27°C° 0 mm 1 m/S 660 mmHg 32%
    10:00 +28°C° 0 mm 2 m/S 660 mmHg 36%
    11:00 +29°C° 0 mm 2 m/S 660 mmHg 39%
    12:00 +29°C° 0 mm 2 m/S 660 mmHg 37%
    13:00 +30°C° 0 mm 2 m/S 659 mmHg 36%
    14:00 +31°C° 0 mm 2 m/S 659 mmHg 35%
    15:00 +31°C° 0 mm 2 m/S 659 mmHg 36%
    16:00 +30°C° 0 mm 2 m/S 659 mmHg 37%
    17:00 +30°C° 0 mm 2 m/S 659 mmHg 38%
    18:00 +29°C° 0 mm 2 m/S 659 mmHg 47%
    19:00 +27°C° 0 mm 1 m/S 659 mmHg 56%
    20:00 +25°C° 0 mm 1 m/S 659 mmHg 65%
    21:00 +25°C° 0 mm 1 m/S 659 mmHg 67%
    22:00 +23°C° 0 mm 0 m/S 659 mmHg 68%
    23:00 +22°C° 0 mm 0 m/S 659 mmHg 69%

    20 September, Freitag

    Zeit Temperatur Niederschläge Wind Luftdruck Luftfeuchtigkeit
    00:00 +22°C° 0 mm 0 m/S 659 mmHg 69%
    01:00 +21°C° 0 mm 0 m/S 658 mmHg 69%
    02:00 +21°C° 0 mm 0 m/S 658 mmHg 69%
    03:00 +23°C° 0.1 mm 1 m/S 658 mmHg 66%
    04:00 +22°C° 0.1 mm 1 m/S 658 mmHg 64%
    05:00 +22°C° 0.1 mm 1 m/S 657 mmHg 62%
    06:00 +23°C° 0 mm 1 m/S 658 mmHg 57%
    07:00 +22°C° 0 mm 0 m/S 658 mmHg 52%
    08:00 +23°C° 0 mm 0 m/S 659 mmHg 47%
    09:00 +26°C° 0.1 mm 1 m/S 659 mmHg 46%
    10:00 +28°C° 0.1 mm 1 m/S 659 mmHg 45%
    11:00 +29°C° 0.1 mm 2 m/S 659 mmHg 44%
    12:00 +29°C° 0 mm 2 m/S 659 mmHg 42%
    13:00 +30°C° 0 mm 3 m/S 658 mmHg 40%
    14:00 +31°C° 0 mm 3 m/S 658 mmHg 37%
    15:00 +30°C° 0 mm 3 m/S 658 mmHg 39%
    16:00 +30°C° 0 mm 2 m/S 658 mmHg 40%
    17:00 +30°C° 0 mm 2 m/S 657 mmHg 41%
    18:00 +28°C° 0 mm 2 m/S 657 mmHg 50%
    19:00 +27°C° 0 mm 1 m/S 657 mmHg 60%
    20:00 +25°C° 0 mm 1 m/S 657 mmHg 69%
    21:00 +25°C° 0 mm 1 m/S 657 mmHg 71%
    22:00 +24°C° 0 mm 1 m/S 657 mmHg 73%
    23:00 +22°C° 0 mm 0 m/S 657 mmHg 75%
    Mehr zeigen